sat.trackr.live / text

‹ back to catalog

STARLINK-5624

NORAD 55416 · 2023-014AB

PAYLOAD ACTIVE UNKNOWN

§ Identity

Operator
Country
US
Launch date
2023-01-31
Launch site
AFWTR
Launch vehicle
Mass (kg)
RCS (m²)

Purposes: comms

External: N2YO · Heavens-Above · Gunter

§ Orbital elements

Epoch: 2026-09-20T22:00:03.000096Z

Period
95.69 min
Inclination
70.0009°
Eccentricity
0.0003137
Mean motion
15.04795997 rev/d
Perigee alt
550.0 km
Apogee alt
554.3 km
Semi-major
6,930.3 km
B*
5.5229e-3
RAAN
312.1289°
Arg perigee
218.2689°
Mean anomaly
291.1715°
Rev number
576

§ Raw data

STARLINK-56241 55416U 23014AB  26263.91670139  .00078883  00000+0  55229-2 0  99942 55416  70.0009 312.1289 0003137 218.2689 291.1715 15.04795997  5765

JSON: /api/v1/satellites/55416 · /tle

For live sub-satellite position, see the globe view (requires WebGL).

§ Visibility from observer

Set your observer location to see the next 7 days of passes ≥ 10°. The values pass through the URL so the page stays shareable.

No JS? Fill the form by hand. The geolocation button needs JavaScript.